Regional Weather Roundup
Issued by NWS

Home | Current Version | Previous Version | Text Only | Print | Product List | Glossary On
Versions: 1 2 3 4 5 6 7 8 9 10 11 12 13 14 15 16 17 18 19 20 21 22 23 24 25 26 27 28
000
ASUS46 KPQR 300710
RWROR

OREGON REGIONAL WEATHER ROUNDUP
NATIONAL WEATHER SERVICE PORTLAND OR
1200 AM PDT SUN APR 30 2017

NOTE: "FAIR" INDICATES FEW OR NO CLOUDS BELOW 12,000 FEET WITH
NO SIGNIFICANT WEATHER AND/OR OBSTRUCTIONS TO VISIBILITY.

ORZ001>013-300800-
NORTHWEST OREGON


CITY           SKY/WX    TMP DP  RH WIND       PRES   REMARKS
ASTORIA        LGT RAIN  50  48  93 W14       30.16R FOG
NEWPORT        CLOUDY    50  50 100 S16       30.25S
PORTLAND       LGT RAIN  51  45  79 S5        30.19S
VANCOUVER WA   LGT RAIN  52  46  80 SE6       30.18S
SCAPPOOSE      LGT RAIN  50  49  96 CALM      30.17S
HILLSBORO      LGT RAIN  51  47  86 S8        30.18R
AURORA         LGT RAIN  51  45  79 S7        30.19F
MCMINNVILLE    LGT RAIN  51  48  89 SW8       30.20S FOG
SALEM          LGT RAIN  50  45  83 S13       30.19F
CORVALLIS      CLOUDY    48  45  87 S3        30.22S
EUGENE         LGT RAIN  50  45  83 S7        30.25S
$$

ORZ021-028-300800-
SOUTHWEST OREGON


CITY           SKY/WX    TMP DP  RH WIND       PRES   REMARKS
NORTH BEND     CLOUDY    54  45  71 S3        30.29F
BROOKINGS      CLEAR     48  46  93 E3        30.28F
ROSEBURG       CLOUDY    56  36  47 CALM      30.26F
SEXTON SUMMIT  CLEAR     43  30  60 N7        30.26S
MEDFORD        CLEAR     54  41  61 CALM      30.25R
$$

ORZ014>016-041-300800-
COLUMBIA GORGE


CITY           SKY/WX    TMP DP  RH WIND       PRES   REMARKS
TROUTDALE      LGT RAIN  52  48  86 E3        30.18F
HOOD RIVER     CLOUDY    50  45  81 NW8       30.15F
THE DALLES     MOCLDY    55  44  66 NW13G21   30.13F
$$

ORZ029>031-041-044-049-050-061>064-502-503-505>511-300800-
EASTERN OREGON


CITY           SKY/WX    TMP DP  RH WIND       PRES   REMARKS
REDMOND        CLOUDY    49  34  56 N7        30.17S
BEND           CLOUDY    50  27  40 CALM      30.18R
PRINEVILLE     CLOUDY    50  34  53 NW5       30.17F
KLAMATH FALLS  CLEAR     43  34  70 W8        30.22F
LAKEVIEW       CLEAR     39  30  70 NW3       30.22R
HERMISTON      CLOUDY    54  40  59 SW8       30.10F
PENDLETON      CLOUDY    53  37  54 SW8       30.11S
JOHN DAY       CLOUDY    50  36  59 CALM      30.17R
MEACHAM        CLOUDY    45  36  70 CALM      30.14F
LA GRANDE      CLOUDY    54  37  54 SW5       30.13F
BAKER CITY     CLOUDY    44  37  76 CALM      30.15R
BURNS          CLOUDY    43  33  68 W8        30.15F
ROME             N/A     49  26  41 SE13      30.12F
ONTARIO        CLOUDY    46  37  71 CALM      30.15S
$$




USA.gov is the U.S. government's official web portal to all federal, state and local government web resources and services.